BV3BA-13 Weather Reports


time (UTC)temp
C
wind
direction
speed
KPH
gust
KPH
rain 1hr
cm
rain 24hr
cm
rain mn
cm
humidity
%
barometer
mb
20260508064703 25 10 14.5 30.6 0.00 0.00 0.00 76 1009.6
20260508063703 25 20 14.5 30.6 0.00 0.00 0.00 74 1009.7
20260508062703 25 20 14.5 30.6 0.00 0.00 0.00 74 1009.8
20260508061704 25 30 12.9 30.6 0.00 0.00 0.00 75 1009.8
20260508060704 25 30 12.9 38.6 0.00 0.00 0.00 74 1009.8
20260508055704 26 30 14.5 38.6 0.00 0.00 0.00 75 1009.9
20260508054705 25 30 14.5 38.6 0.00 0.00 0.00 76 1009.8
20260508053703 25 30 11.3 38.6 0.00 0.00 0.00 76 1010.1
20260508052703 25 20 16.1 38.6 0.00 0.00 0.00 74 1010.4
20260508051704 26 40 12.9 38.6 0.00 0.00 0.00 74 1010.3
20260508050704 25 30 14.5 37.0 0.00 0.00 0.00 75 1010.4
20260508045703 25 20 12.9 37.0 0.00 0.00 0.00 78 1010.4
20260508044703 25 40 14.5 37.0 0.00 0.00 0.00 77 1010.3
20260508043704 25 30 14.5 37.0 0.00 0.00 0.00 76 1010.4
20260508042704 26 40 14.5 37.0 0.00 0.00 0.00 74 1010.7
20260508041703 25 40 14.5 37.0 0.00 0.00 0.00 76 1010.7
20260508040703 25 50 14.5 30.6 0.00 0.00 0.00 78 1010.8
20260508035703 25 30 11.3 30.6 0.00 0.00 0.00 76 1010.9
20260508034704 25 30 12.9 30.6 0.00 0.00 0.00 79 1010.9
20260508033704 25 30 11.3 30.6 0.00 0.00 0.00 79 1010.9
20260508032704 25 30 12.9 30.6 0.00 0.00 0.00 79 1011.1
20260508031703 25 30 14.5 30.6 0.00 0.00 0.00 81 1011.2
20260508030703 25 30 12.9 24.1 0.00 0.00 0.00 80 1011.2
20260508025703 25 30 14.5 24.1 0.00 0.00 0.00 81 1011.2
20260508024703 25 30 12.9 24.1 0.00 0.00 0.00 80 1011.1
20260508023703 26 30 12.9 24.1 0.00 0.00 0.00 78 1011.0
20260508022705 26 40 9.7 24.1 0.00 0.00 0.00 78 1011.0
20260508021703 27 30 9.7 24.1 0.00 0.00 0.00 76 1011.1
20260508020703 27 50 6.4 20.9 0.00 0.00 0.00 77 1011.0
20260508015704 26 30 9.7 20.9 0.00 0.00 0.00 79 1011.1
20260508014704 26 20 8.0 20.9 0.00 0.00 0.00 79 1011.3
20260508013703 26 50 8.0 20.9 0.00 0.00 0.00 79 1011.2
20260508012704 26 40 9.7 20.9 0.00 0.00 0.00 79 1011.2
20260508011703 26 30 8.0 20.9 0.00 0.00 0.00 80 1011.1
20260508010703 25 20 9.7 16.1 0.00 0.00 0.00 82 1011.1
20260508005703 25 10 9.7 16.1 0.00 0.00 0.00 84 1011.1
20260508004703 25 20 6.4 16.1 0.00 0.00 0.00 84 1010.9
20260508003703 25 30 6.4 16.1 0.00 0.00 0.00 85 1010.7
20260508002703 25 10 11.3 16.1 0.00 0.00 0.00 86 1010.6
20260508001703 25 20 8.0 16.1 0.00 0.00 0.00 86 1010.6
20260508000703 25 30 6.4 8.0 0.00 0.00 0.00 87 1010.5
20260507235703 25 20 4.8 8.0 0.00 0.00 0.00 88 1010.5
20260507234703 25 20 3.2 8.0 0.00 0.00 0.00 89 1010.4
20260507233703 25 20 1.6 8.0 0.00 0.00 0.00 89 1010.4
20260507232703 25 0 0.0 8.0 0.00 0.00 0.00 88 1010.3
20260507231703 24 50 3.2 8.0 0.00 0.00 0.00 88 1010.2
20260507230703 24 70 3.2 4.8 0.00 0.00 0.00 88 1010.1
20260507225703 24 60 3.2 4.8 0.00 0.00 0.00 88 1010.1
20260507224703 23 60 3.2 4.8 0.00 0.00 0.00 88 1010.0
20260507223703 23 60 3.2 4.8 0.00 0.00 0.00 88 1010.0
20260507222703 23 10 1.6 4.8 0.00 0.00 0.00 89 1010.0
20260507221703 23 30 1.6 4.8 0.00 0.00 0.00 89 1009.8
20260507220703 23 70 1.6 8.0 0.00 0.00 0.00 88 1009.6
20260507215705 23 100 1.6 8.0 0.00 0.00 0.00 89 1009.4
20260507214704 23 90 1.6 8.0 0.00 0.00 0.00 89 1009.3
20260507213703 23 0 0.0 8.0 0.00 0.00 0.00 89 1009.5
20260507212704 23 50 1.6 8.0 0.00 0.00 0.00 90 1009.4
20260507211703 23 70 1.6 8.0 0.00 0.00 0.00 89 1009.2
20260507210703 23 70 3.2 9.7 0.00 0.00 0.00 88 1009.1
20260507205704 23 70 3.2 9.7 0.00 0.00 0.00 87 1009.0
20260507204704 23 50 4.8 9.7 0.00 0.00 0.00 87 1009.0
20260507203703 23 60 3.2 9.7 0.00 0.00 0.00 88 1008.9
20260507202705 23 60 3.2 9.7 0.00 0.00 0.00 87 1008.7
20260507201703 23 90 1.6 9.7 0.00 0.00 0.00 86 1008.7
20260507200704 23 70 3.2 9.7 0.00 0.00 0.00 86 1008.6
20260507195704 23 70 1.6 9.7 0.00 0.00 0.00 87 1008.5
20260507194703 23 110 3.2 9.7 0.00 0.00 0.00 87 1008.4
20260507193703 23 110 4.8 9.7 0.00 0.00 0.00 87 1008.3
20260507192704 23 110 3.2 9.7 0.00 0.00 0.00 88 1008.3
20260507191703 23 140 1.6 9.7 0.00 0.00 0.00 88 1008.4
20260507190703 23 140 1.6 6.4 0.00 0.00 0.00 90 1008.4
20260507185703 23 130 3.2 6.4 0.00 0.00 0.00 90 1008.4
20260507184703 23 120 3.2 6.4 0.00 0.00 0.00 90 1008.4
20260507183703 23 70 3.2 6.4 0.00 0.00 0.00 91 1008.4
20260507182703 23 60 3.2 6.4 0.00 0.00 0.00 91 1008.3
20260507181703 23 70 3.2 6.4 0.00 0.00 0.00 89 1008.4
20260507180703 23 80 1.6 4.8 0.00 0.00 0.00 91 1008.4
20260507175704 23 70 1.6 4.8 0.00 0.00 0.00 90 1008.4
20260507174704 23 80 1.6 4.8 0.00 0.00 0.00 91 1008.3
20260507173703 23 0 0.0 4.8 0.00 0.00 0.00 91 1008.3
20260507172704 23 0 0.0 4.8 0.00 0.00 0.00 91 1008.3
20260507171704 23 0 0.0 4.8 0.00 0.00 0.00 90 1008.4
20260507170705 23 0 0.0 8.0 0.00 0.00 0.00 93 1008.4
20260507165703 23 0 0.0 8.0 0.00 0.00 0.00 92 1008.4
20260507164704 23 0 0.0 8.0 0.00 0.00 0.00 90 1008.4
20260507163703 24 50 1.6 8.0 0.00 0.00 0.00 88 1008.5
20260507162703 24 30 1.6 8.0 0.00 0.00 0.00 89 1008.6
20260507161703 24 60 1.6 8.0 0.00 0.00 0.00 87 1008.6
20260507160703 25 80 1.6 9.7 0.00 0.00 0.00 85 1008.7
20260507155703 24 110 1.6 9.7 0.00 0.00 0.00 86 1008.7
20260507154703 25 120 3.2 9.7 0.00 0.00 0.00 85 1008.8
20260507153703 24 110 1.6 9.7 0.00 0.00 0.00 86 1008.9
20260507152704 25 120 3.2 9.7 0.00 0.00 0.00 85 1008.9
20260507151703 25 130 3.2 9.7 0.00 0.00 0.00 86 1009.0
20260507150704 25 110 3.2 6.4 0.00 0.00 0.00 86 1009.1
20260507145705 25 120 3.2 6.4 0.00 0.00 0.00 87 1009.1
20260507144704 25 110 3.2 6.4 0.00 0.00 0.00 86 1009.1
20260507143704 25 100 1.6 6.4 0.00 0.00 0.00 86 1009.0
20260507142705 25 100 1.6 6.4 0.00 0.00 0.00 86 1009.0
20260507141704 25 120 3.2 6.4 0.00 0.00 0.00 86 1009.0
20260507140703 25 100 1.6 6.4 0.00 0.00 0.00 86 1008.9
20260507135704 25 110 3.2 6.4 0.00 0.00 0.00 86 1008.9
20260507134703 25 80 1.6 6.4 0.00 0.00 0.00 86 1008.8
20260507133703 25 70 3.2 6.4 0.00 0.00 0.00 88 1008.8
20260507132704 25 60 4.8 6.4 0.00 0.00 0.00 88 1008.7
20260507131703 25 50 4.8 6.4 0.00 0.00 0.00 88 1008.7
20260507130703 25 80 3.2 8.0 0.00 0.00 0.00 86 1008.6
20260507125703 25 100 3.2 8.0 0.00 0.00 0.00 84 1008.5
20260507124704 25 90 3.2 8.0 0.00 0.00 0.00 83 1008.5
20260507123703 25 100 1.6 8.0 0.00 0.00 0.00 83 1008.5
20260507122705 25 100 1.6 8.0 0.00 0.00 0.00 83 1008.4
20260507121704 25 90 1.6 8.0 0.00 0.00 0.00 83 1008.4
20260507120703 25 0 0.0 8.0 0.00 0.00 0.00 84 1008.4
20260507115703 25 0 0.0 8.0 0.00 0.00 0.00 83 1008.4
20260507114703 25 270 1.6 8.0 0.00 0.00 0.00 84 1008.3
20260507113703 25 260 1.6 8.0 0.00 0.00 0.00 85 1008.2
20260507112707 25 310 4.8 8.0 0.00 0.00 0.00 85 1008.2
20260507111703 25 310 3.2 8.0 0.00 0.00 0.00 85 1008.0
20260507110703 25 310 1.6 11.3 0.00 0.00 0.00 84 1007.9
20260507105704 25 170 1.6 11.3 0.00 0.00 0.00 83 1007.8
20260507104703 25 0 0.0 11.3 0.00 0.00 0.00 84 1007.7
20260507103704 25 300 1.6 11.3 0.00 0.00 0.00 83 1007.8
20260507102704 25 0 0.0 11.3 0.00 0.00 0.00 83 1007.7
20260507101703 25 340 1.6 11.3 0.00 0.00 0.00 82 1007.6
20260507100703 25 0 1.6 17.7 0.00 0.00 0.00 81 1007.5
20260507095704 25 300 3.2 17.7 0.00 0.00 0.00 81 1007.5
20260507094703 25 300 3.2 17.7 0.00 0.00 0.00 81 1007.4
20260507093704 26 300 4.8 17.7 0.00 0.00 0.00 81 1007.3
20260507092704 26 300 6.4 17.7 0.00 0.00 0.00 81 1007.3
20260507091704 26 300 6.4 17.7 0.00 0.00 0.00 81 1007.2
20260507090703 26 290 9.7 19.3 0.00 0.00 0.00 80 1007.1
20260507085704 26 290 9.7 19.3 0.00 0.00 0.00 79 1007.0
20260507084704 26 290 8.0 19.3 0.00 0.00 0.00 78 1007.0
20260507083703 26 300 6.4 19.3 0.00 0.00 0.00 79 1007.0
20260507082703 27 300 6.4 19.3 0.00 0.00 0.00 76 1006.9
20260507081705 28 310 6.4 19.3 0.00 0.00 0.00 74 1006.9
20260507080703 28 290 6.4 19.3 0.00 0.00 0.00 70 1006.8
20260507075703 27 280 6.4 19.3 0.00 0.00 0.00 69 1006.7
20260507074703 28 280 4.8 19.3 0.00 0.00 0.00 70 1006.8
20260507073703 28 290 4.8 19.3 0.00 0.00 0.00 70 1006.8
20260507072703 28 0 4.8 19.3 0.00 0.00 0.00 73 1006.8
20260507071703 28 350 4.8 19.3 0.00 0.00 0.00 73 1006.8
20260507070703 28 0 4.8 12.9 0.00 0.00 0.00 75 1006.8
20260507065704 28 320 4.8 12.9 0.00 0.00 0.00 71 1006.9